Debrecen, Hungary

4:35 AM CEST on October 17, 2017 (GMT +0200)
Debrecen

Weather History for LHDC - October, 2011

Change the Weather History Date:

Sunday, October 9, 2011

  Actual Average Record
Temperature  
Mean Temperature 48 °F -  
Max Temperature 57 °F 58 °F - ()
Min Temperature 38 °F 40 °F - ()
Degree Days  
Heating Degree Days 18    
Moisture  
Dew Point 41 °F    
Average Humidity 74    
Maximum Humidity 93    
Minimum Humidity 45    
Precipitation  
Precipitation 0.00 in 0.05 in - ()
Sea Level Pressure  
Sea Level Pressure 29.91 in    
Wind  
Wind Speed 7 mph ()    
Max Wind Speed 18 mph    
Max Gust Speed 28 mph    
Visibility 6.8 miles    
Events Rain    
T = Trace of Precipitation, MM = Missing Value Source: Averaged Metar Reports

Daily Weather History Graph

Daily Weather History Graph

Search for Another Location

Airport or City:

Trip Planner

Search our weather history database for the weather conditions in past years. The results will help you decide how hot, cold, wet, or windy it might be!

Date:

Astronomy

Oct. 09, 2011 Rise Set
Actual Time 6:42 AM CEST 5:58 PM CEST
Civil Twilight 6:12 AM CEST 6:28 PM CEST
Nautical Twilight 5:36 AM CEST 7:04 PM CEST
Astronomical Twilight 5:00 AM CEST 7:40 PM CEST
Moon 4:32 PM CEST (10/9) 4:02 AM CEST (10/9)
Length of Visible Light 12h 16m
Length of Day
11h 15m
Waxing Gibbous, 94% of the Moon is Illuminated
Oct 9
Waxing Gibbous
Oct 12
Full
Oct 20
Last Quarter
Oct 26
New
Nov 2
First Quarter

Hourly Weather History & Observations

Time (CEST) Temp. Windchill Dew Point Humidity Pressure Visibility Wind Dir Wind Speed Gust Speed Precip Events Conditions
12:45 AM 42.8 °F 41.1 °F 41.0 °F 93% 29.83 in - SSW 3.5 mph - N/A   Clear
1:45 AM 41.0 °F - 39.2 °F 93% 29.83 in - North 1.2 mph - N/A   Clear
2:00 AM 42 °F - 39 °F 87% 29.83 in 12 mi North 2.2 mph - -   Partly Cloudy
3:45 AM 41.0 °F - 39.2 °F 93% 29.83 in 6.2 mi ESE 1.2 mph - N/A   Mostly Cloudy
4:45 AM 42.8 °F - 41.0 °F 93% 29.80 in 6.2 mi Calm Calm - N/A   Mostly Cloudy
5:45 AM 44.6 °F - 42.8 °F 93% 29.83 in 6.2 mi Calm Calm - N/A   Mostly Cloudy
6:15 AM 44.6 °F - 42.8 °F 93% 29.83 in 5.0 mi Calm Calm - N/A   Mostly Cloudy
6:45 AM 42.8 °F 38.6 °F 41.0 °F 93% 29.83 in 3.7 mi NE 6.9 mph - N/A   Mostly Cloudy
7:00 AM - - - N/A% - 6.2 mi Variable 3.5 mph - N/A   Mostly Cloudy
7:15 AM 42.8 °F 38.6 °F 41.0 °F 93% 29.83 in 3.7 mi NE 6.9 mph - N/A   Mostly Cloudy
7:45 AM 42.8 °F 38.6 °F 41.0 °F 93% 29.83 in 4.3 mi NE 6.9 mph - N/A   Mostly Cloudy
8:00 AM 43 °F - 42 °F 93% 29.84 in 4 mi NE 6.7 mph - -   Partly Cloudy
8:15 AM 44.6 °F 39.7 °F 42.8 °F 93% 29.86 in 5.0 mi NE 9.2 mph - N/A   Mostly Cloudy
8:45 AM 44.6 °F 39.2 °F 42.8 °F 93% 29.86 in 5.0 mi NNE 10.4 mph - N/A   Mostly Cloudy
9:15 AM 46.4 °F 41.1 °F 42.8 °F 87% 29.86 in 5.0 mi NNE 11.5 mph - N/A   Mostly Cloudy
9:45 AM 48.2 °F - 42.8 °F 82% 29.89 in 6.2 mi NE 11.5 mph - N/A   Mostly Cloudy
10:00 AM - - - N/A% - 6.2 mi NNE 11.5 mph - N/A   Scattered Clouds
10:15 AM 48.2 °F - 42.8 °F 82% 29.89 in 6.2 mi NNE 10.4 mph - N/A   Mostly Cloudy
10:45 AM 50.0 °F - 42.8 °F 76% 29.89 in - NNE 9.2 mph - N/A   Clear
11:15 AM 50.0 °F - 42.8 °F 76% 29.89 in 6.2 mi North 9.2 mph - N/A   Mostly Cloudy
11:45 AM 53.6 °F - 44.6 °F 72% 29.89 in 6.2 mi North 9.2 mph - N/A   Mostly Cloudy
12:15 PM 53.6 °F - 44.6 °F 72% 29.89 in 6.2 mi North 11.5 mph - N/A   Mostly Cloudy
12:45 PM 55.4 °F - 42.8 °F 63% 29.89 in 6.2 mi NNE 13.8 mph - N/A   Scattered Clouds
1:00 PM - - - N/A% - 6.2 mi NNE 16.1 mph 27.6 mph N/A   Scattered Clouds
1:15 PM 57.2 °F - 41.0 °F 55% 29.89 in 6.2 mi NNE 12.7 mph - N/A   Scattered Clouds
1:45 PM 57.2 °F - 42.8 °F 59% 29.89 in 6.2 mi North 15.0 mph - N/A   Scattered Clouds
2:00 PM 58 °F - 42 °F 45% 29.88 in 19 mi North 13.4 mph - -   Partly Cloudy
2:15 PM 55.4 °F - 42.8 °F 63% 29.89 in 6.2 mi NNE 18.4 mph - N/A   Mostly Cloudy
2:45 PM 55.4 °F - 41.0 °F 58% 29.89 in 6.2 mi NNE 15.0 mph - N/A   Scattered Clouds
3:15 PM 55.4 °F - 41.0 °F 58% 29.89 in 6.2 mi North 15.0 mph - N/A   Mostly Cloudy
3:45 PM 55.4 °F - 41.0 °F 58% 29.92 in 6.2 mi NNE 15.0 mph - N/A Rain Light Rain Showers
4:15 PM 55.4 °F - 41.0 °F 58% 29.92 in 6.2 mi NNE 16.1 mph - N/A   Mostly Cloudy
4:45 PM 53.6 °F - 41.0 °F 62% 29.92 in 6.2 mi NNE 15.0 mph - N/A   Mostly Cloudy
5:15 PM 53.6 °F - 41.0 °F 62% 29.95 in - North 11.5 mph - N/A   Clear
5:45 PM 51.8 °F - 39.2 °F 62% 29.95 in - North 12.7 mph - N/A   Clear
6:15 PM 51.8 °F - 39.2 °F 62% 29.98 in - North 13.8 mph - N/A   Clear
6:45 PM 50.0 °F - 39.2 °F 66% 29.98 in - North 13.8 mph - N/A   Clear
7:15 PM 50.0 °F - 37.4 °F 62% 30.01 in - North 13.8 mph - N/A   Clear
7:45 PM 50.0 °F - 37.4 °F 62% 30.01 in - North 11.5 mph - N/A   Clear
8:00 PM 49 °F - 38 °F 55% 30.01 in 19 mi North 11.2 mph - -   Partly Cloudy
8:15 PM 48.2 °F - 37.4 °F 66% 30.01 in - North 12.7 mph - N/A   Clear
8:45 PM 48.2 °F - 37.4 °F 66% 30.01 in - North 12.7 mph - N/A   Clear
9:15 PM 48.2 °F - 37.4 °F 66% 30.04 in - North 10.4 mph - N/A   Clear
9:45 PM 48.2 °F - 37.4 °F 66% 30.04 in - North 10.4 mph - N/A   Clear
10:45 PM 46.4 °F 41.1 °F 37.4 °F 71% 30.04 in - North 11.5 mph - N/A   Clear
11:45 PM 46.4 °F 41.1 °F 39.2 °F 76% 30.04 in - North 11.5 mph - N/A   Clear